MiTEE 1
1 47314U 21002F 21063.44098058 .00003567 00000-0 16376-3 0 9991
2 47314 60.6874 323.8934 0016916 322.1493 37.8403 15.22516290 6915
OBJECT G
1 47315U 21002G 21063.43123298 .00001948 00000-0 94127-4 0 9998
2 47315 60.6863 323.8435 0014823 321.2912 38.7112 15.22790166 6914
OBJECT J
1 47317U 21002J 21063.10565732 .00001358 00000-0 73589-4 0 9991
2 47317 60.6872 325.6756 0022742 335.7539 24.2475 15.20475017 6832
OBJECT K
1 47318U 21002K 21063.43354690 .00001365 00000-0 73845-4 0 9990
2 47318 60.6867 324.4419 0022764 335.6681 24.3328 15.20504924 6884
ExoCube 2
1 47319U 21002L 21063.42007390 .00001490 00000-0 78579-4 0 9990
2 47319 60.6844 324.3698 0020558 336.3139 23.6998 15.20944131 6853
OBJECT M
1 47320U 21002M 21063.14814522 .00002213 00000-0 10983-3 0 9992
2 47320 60.6849 325.3041 0019650 335.0811 24.9324 15.21264255 6891
OBJECT N
1 47345U 21002N 21063.45863044 .00004521 00000-0 20761-3 0 9995
2 47345 60.6864 323.9798 0019487 327.1703 32.8171 15.21939620 6633
UVSQ-SAT
1 47438U 21006AB 21063.42561466 .00001404 00000-0 83288-4 0 9993
2 47438 97.5013 126.4729 0014426 100.2101 260.0757 15.12892717 6170
YUSAT 1
1 47439U 21006AC 21063.42637787 .00001431 00000-0 84900-4 0 9996
2 47439 97.5015 126.4727 0014301 100.4092 259.8751 15.12863129 6179
SOMP 2b
1 47445U 21006AJ 21063.42935025 .00001353 00000-0 80752-4 0 9993
2 47445 97.4985 126.4502 0014048 103.4513 256.8285 15.12745065 6178
IDEASSat
1 47458U 21006AX 21063.43278228 .00001342 00000-0 80424-4 0 9997
2 47458 97.5075 126.4983 0013218 101.9093 258.3621 15.12609343 6179
